This is the latest recevied weather packets stored in our database for station/object N0ZJT. If no packets are shown the sender has not sent any weather packets the latest 10 day(s).
| Time | Temp. | Humidity | Pressure | Rain* | Wind** | Luminosity | Snow |
|---|---|---|---|---|---|---|---|
| 1777730330 | 8.89° C | 57% | 982.1 hPa | 0 mm | - | - | - |
| 1777729490 | 8.33° C | 59% | 982.1 hPa | 0 mm | - | - | - |
| 1777728530 | 7.78° C | 60% | 981.9 hPa | 0 mm | - | - | - |
| 1777727690 | 7.78° C | 59% | 981.9 hPa | 0 mm | - | - | - |
| 1777726730 | 7.22° C | 60% | 981.9 hPa | 0 mm | - | - | - |
| 1777725890 | 6.67° C | 60% | 981.9 hPa | 0 mm | - | - | - |
| 1777724930 | 5.56° C | 62% | 981.7 hPa | 0 mm | - | - | - |
| 1777724090 | 4.44° C | 63% | 981.8 hPa | 0 mm | - | - | - |
| 1777723130 | 3.89° C | 64% | 981.7 hPa | 0 mm | - | - | - |
| 1777722290 | 3.89° C | 64% | 981.6 hPa | 0 mm | - | - | - |
| 1777721330 | 3.89° C | 64% | 981.6 hPa | 0 mm | - | - | - |
| 1777720490 | 3.89° C | 64% | 981.5 hPa | 0 mm | - | - | - |
| 1777719530 | 3.89° C | 63% | 981.3 hPa | 0 mm | - | - | - |
| 1777718690 | 3.89° C | 63% | 981.2 hPa | 0 mm | - | - | - |
| 1777717776 | 3.89° C | 63% | 981 hPa | 0 mm | - | - | - |
| 1777717730 | 3.89° C | 63% | 981 hPa | 0 mm | - | - | - |
| 1777717141 | 4.44° C | 62% | 981.1 hPa | 0 mm | - | - | - |
| 1777716890 | 4.44° C | 62% | 981.1 hPa | 0 mm | - | - | - |
| 1777715930 | 4.44° C | 61% | 981 hPa | 0 mm | - | - | - |
| 1777715090 | 4.44° C | 61% | 981 hPa | 0 mm | - | - | - |
| 1777714130 | 4.44° C | 61% | 981.3 hPa | 0 mm | - | - | - |
| 1777713290 | 4.44° C | 61% | 980.9 hPa | 0 mm | - | - | - |
| 1777712570 | 4.44° C | 61% | 981 hPa | 0 mm | - | - | - |
| 1777712330 | 4.44° C | 61% | 981 hPa | 0 mm | - | - | - |
| 1777711739 | 4.44° C | 60% | 980.9 hPa | 0 mm | - | - | - |
* Rain latest hour (hover to see other rain measurements)
** Current wind speed in m/s (hover to see current wind gust speed)